Home > Weather > Lugo > Past weeks

Flag for Spain Past Weather in Lugo, Galicia, Spain — Yesterday and Last 2 Weeks

Now
59 °F

Sprinkles. Broken clouds.


Feels Like: 58 °F
Forecast: 41 / 70 °F
Wind: 6 mph from Northwest

Location: Santiago / Labacolla

Current Time: May 30, 2016 at 4:41:35 PM

Latest Report: May 30, 2016 at 4:00 PM


Visibility: N/A

Pressure: 30.18 "Hg

Humidity: 88%

Dew Point: 55 °F

Location of LugoLocation

Past Weather in Lugo — Graph

°F

Lugo Temperature Yesterday

Maximum temperature yesterday: 63 °F (at 2:00 PM)
Minimum temperature yesterday: 54 °F (at 12:00 AM)
Average temperature yesterday: 56 °F

High & Low Weather Summary for the Past Weeks

 TemperatureHumidityPressure
High79 °F (May 20, 3:30 PM)100% (May 17, 1:00 AM)30.30 "Hg (May 17, 1:00 AM)
Low45 °F (May 23, 2:00 AM)24% (May 20, 5:30 PM)29.80 "Hg (May 24, 3:00 PM)
Average56 °F81%30.05 "Hg
* Reported May 15 3:00 PM — May 30 3:30 PM, Lugo, Weather by CustomWeather, © 2016

Note: Actual official high and low records may vary slightly from our data, if they occured in-between our weather recording intervals... More about our weather records

Advertising

Lugo Weather History for the Previous 24 Hours

Scroll right to see more
 ConditionsComfort  
Time TempWeatherWind HumidityBarometerVisibility
3:30 PM
Mon, May 30
61 °FScattered showers. Broken clouds.10 mph72%30.15 "HgN/A
3:00 PM61 °FScattered clouds.6 mph77%30.15 "HgN/A
2:30 PM61 °FScattered clouds.7 mph72%30.15 "HgN/A
2:00 PM61 °FScattered clouds.8 mph77%30.18 "HgN/A
1:00 PM59 °FPartly sunny.8 mph77%30.18 "HgN/A
12:30 PM57 °FBroken clouds.7 mph82%30.18 "HgN/A
12:00 PM55 °FLight rain. Partly sunny.8 mph88%30.18 "HgN/A
11:30 AM57 °FPartly sunny.3 mph82%30.15 "HgN/A
11:00 AM55 °FPartly sunny.3 mph82%30.15 "HgN/A
10:30 AM54 °FBroken clouds.5 mph94%30.15 "HgN/A
10:00 AM54 °FBroken clouds.6 mph94%30.15 "HgN/A
9:30 AM54 °FRain. Broken clouds.3 mph94%30.15 "HgN/A
9:00 AM54 °FRain. Broken clouds.5 mph94%30.12 "HgN/A
8:30 AM54 °FRain. Broken clouds.3 mph94%30.12 "HgN/A
8:00 AM54 °FRain. Broken clouds.3 mph94%30.12 "HgN/A
7:30 AM52 °FRain. Passing clouds.2 mph100%30.12 "HgN/A
7:00 AM52 °FPartly cloudy.6 mph100%30.12 "Hg5 mi
6:30 AM52 °FPartly cloudy.7 mph100%30.09 "Hg6 mi
6:00 AM52 °FPassing clouds.3 mph100%30.09 "Hg5 mi
5:30 AM54 °FMostly cloudy.5 mph94%30.12 "Hg5 mi
5:00 AM52 °FMostly cloudy.3 mph100%30.12 "Hg5 mi
4:30 AM54 °FPartly cloudy.5 mph94%30.09 "Hg5 mi
4:00 AM54 °FPassing clouds.6 mph94%30.09 "Hg6 mi
3:30 AM54 °FPassing clouds.3 mph94%30.12 "Hg6 mi
3:00 AM54 °FPassing clouds.3 mph94%30.12 "Hg6 mi
2:30 AM54 °FPartly cloudy.6 mph94%30.12 "Hg6 mi
2:00 AM54 °FPassing clouds.6 mph94%30.12 "Hg6 mi
1:30 AM54 °FPassing clouds.5 mph94%30.12 "Hg6 mi
1:00 AM54 °FPassing clouds.5 mph94%30.12 "Hg6 mi
12:30 AM54 °FPartly cloudy.3 mph94%30.12 "HgN/A
12:00 AM54 °FPassing clouds.3 mph94%30.12 "HgN/A
11:30 PM
Sun, May 29
54 °FPassing clouds.3 mph88%30.12 "HgN/A
11:00 PM54 °FBroken clouds.5 mph94%30.12 "HgN/A
10:30 PM54 °FScattered clouds.5 mph94%30.09 "HgN/A
10:00 PM55 °FScattered clouds.6 mph88%30.09 "HgN/A
9:30 PM55 °FScattered clouds.6 mph88%30.09 "HgN/A
9:00 PM57 °FScattered clouds.7 mph82%30.09 "HgN/A
8:30 PM57 °FScattered clouds.9 mph77%30.09 "HgN/A
8:00 PM57 °FScattered clouds.8 mph77%30.07 "HgN/A
7:30 PM59 °FPartly sunny.12 mph72%30.07 "HgN/A
7:00 PM59 °FPartly sunny.10 mph72%30.07 "HgN/A
6:30 PM59 °FBroken clouds.12 mph68%30.07 "HgN/A
6:00 PM61 °FScattered clouds.14 mph63%30.07 "HgN/A
5:30 PM61 °FScattered clouds.13 mph63%30.07 "HgN/A
5:00 PM59 °FScattered clouds.12 mph63%30.07 "HgN/A
4:30 PM61 °FScattered clouds.16 mph63%30.07 "HgN/A
4:00 PM61 °FScattered clouds.13 mph68%30.07 "HgN/A
Weather by CustomWeather, © 2016

See weather overviewHow to use our weather pages